Location: Sternwarte-Kraichtal
(49.1689°N, 8.6996°E)
Time: 19:07:25
(UTC+02:00)

Vanguard 2 Rocket - Pass Details

Date: 02 June 2022
Orbit: 553 x 3323 km, 32.9° (Epoch: 02 July)

Event Time Altitude Azimuth Distance (km) Brightness Sun altitude
Rises 15:51:42 0° 260° (W) 7,294 12.1 50.3°
Reaches altitude 10° 15:57:02 10° 255° (WSW) 6,275 12.0 49.5°
Maximum altitude 16:14:36 42° 194° (SSW) 3,633 11.0 46.9°
Drops below altitude 10° 16:27:15 10° 130° (SE) 4,591 10.4 45.0°
Sets 16:30:28 0° 123° (ESE) 5,253 10.5 44.5°
